This is the latest recevied weather packets stored in our database for station/object K5GTX. If no packets are shown the sender has not sent any weather packets the latest 10 day(s).
| Time | Temp. | Humidity | Pressure | Rain* | Wind** | Luminosity | Snow |
|---|---|---|---|---|---|---|---|
| 1777736829 | 19.44° C | 99% | 1028.9 hPa | 0 mm | - | 585 W/m² | - |
| 1777736212 | 19.44° C | 99% | 1028.9 hPa | 0 mm | - | 603 W/m² | - |
| 1777735908 | 19.44° C | 99% | 1028.8 hPa | 0 mm | - | 451 W/m² | - |
| 1777735606 | 20° C | 99% | 1028.7 hPa | 0 mm | - | 569 W/m² | - |
| 1777735303 | 19.44° C | 99% | 1028.8 hPa | 0 mm | - | 599 W/m² | - |
| 1777735001 | 20° C | 99% | 1028.8 hPa | 0 mm | - | 513 W/m² | - |
| 1777734698 | 20° C | 99% | 1028.6 hPa | 0 mm | - | 533 W/m² | - |
| 1777734395 | 18.33° C | 99% | 1028.5 hPa | 0 mm | - | 424 W/m² | - |
| 1777734091 | 18.33° C | 99% | 1028.5 hPa | 0 mm | - | 495 W/m² | - |
| 1777733788 | 18.33° C | 99% | 1028.5 hPa | 0 mm | - | 437 W/m² | - |
| 1777733485 | 18.33° C | 99% | 1028.6 hPa | 0 mm | - | 499 W/m² | - |
| 1777733181 | 17.78° C | 99% | 1028.6 hPa | 0 mm | - | 458 W/m² | - |
| 1777732878 | 18.89° C | 99% | 1028.4 hPa | 0 mm | - | 385 W/m² | - |
| 1777732574 | 18.89° C | 99% | 1028.4 hPa | 0 mm | - | 360 W/m² | - |
| 1777732272 | 17.78° C | 99% | 1028.4 hPa | 0 mm | - | 345 W/m² | - |
| 1777731969 | 17.22° C | 99% | 1028.2 hPa | 0 mm | - | 309 W/m² | - |
| 1777731665 | 17.22° C | 99% | 1028.5 hPa | 0 mm | - | 319 W/m² | - |
| 1777731363 | 16.67° C | 99% | 1028.6 hPa | 0 mm | - | 327 W/m² | - |
| 1777731061 | 16.67° C | 99% | 1028.4 hPa | 0 mm | - | 296 W/m² | - |
| 1777730759 | 16.67° C | 99% | 1028.3 hPa | 0 mm | - | 276 W/m² | - |
| 1777730455 | 16.11° C | 99% | 1028.1 hPa | 0 mm | - | 241 W/m² | - |
| 1777730151 | 16.11° C | 99% | 1028 hPa | 0 mm | - | 247 W/m² | - |
| 1777729848 | 15.56° C | 99% | 1028.2 hPa | 0 mm | - | 208 W/m² | - |
| 1777729544 | 15° C | 99% | 1028 hPa | 0 mm | - | 50 W/m² | - |
| 1777729241 | 15° C | 99% | 1028.1 hPa | 0 mm | - | 56 W/m² | - |
* Rain latest hour (hover to see other rain measurements)
** Current wind speed in m/s (hover to see current wind gust speed)